sat.trackr.live / text

‹ back to catalog

ATHENA-FIDUS

NORAD 39509 · 2014-006B

PAYLOAD ACTIVE UNKNOWN

§ Identity

Operator
Country
FRIT
Launch date
2014-02-06
Launch site
FRGUI
Launch vehicle
Mass (kg)
RCS (m²)
3.98

Purposes: comms

External: N2YO · Heavens-Above · Gunter

§ Orbital elements

Epoch: 2026-05-25T03:55:23.729376Z

Period
1,436.10 min
Inclination
0.0224°
Eccentricity
0.0001610
Mean motion
1.00271681 rev/d
Perigee alt
35,779.8 km
Apogee alt
35,793.4 km
Semi-major
42,164.8 km
B*
0.0000e+0
RAAN
60.8497°
Arg perigee
9.4361°
Mean anomaly
269.1096°
Rev number
4,485

§ Raw data

ATHENA-FIDUS1 39509U 14006B   26145.16346909  .00000000  00000+0  00000+0 0  99912 39509   0.0224  60.8497 0001610   9.4361 269.1096  1.00271681 44851

JSON: /api/v1/satellites/39509 · /tle

For live sub-satellite position, see the globe view (requires WebGL).

§ Visibility from observer

Set your observer location to see the next 7 days of passes ≥ 10°. The values pass through the URL so the page stays shareable.

No JS? Fill the form by hand. The geolocation button needs JavaScript.